Location: Black Forest
(43.4794°N, 75.0081°W)
Time: 00:52:32
(UTC-04:00)

ISS - All Passes

Search period start: 24 July 2017 00:00
Search period end: 03 August 2017 00:00
Orbit: 400 x 408 km, 51.6° (Epoch: 24 July)

Date Brightness Start Highest point End Pass type
(mag) Time Alt. Az. Time Alt. Az. Time Alt. Az.
24 Jul - 01:12:41 10° NW 01:15:07 19° N 01:17:33 10° NE visible
24 Jul - 02:49:14 10° NW 02:52:15 34° NNE 02:55:17 10° E visible
24 Jul - 04:25:41 10° WNW 04:28:47 39° SW 04:31:51 10° SSE visible
24 Jul - 21:06:10 10° SSW 21:09:04 30° SE 21:11:59 10° ENE visible
24 Jul - 22:42:23 10° W 22:45:28 40° NNW 22:48:35 10° NE visible
25 Jul - 00:20:07 10° NW 00:22:34 19° N 00:25:01 10° NE visible
25 Jul - 01:56:59 10° NW 01:59:48 26° NNE 02:02:36 10° ENE visible
25 Jul - 03:33:16 10° WNW 03:36:32 75° SW 03:39:47 10° SE visible
25 Jul - 20:14:44 10° S 20:16:56 17° SE 20:19:08 10° E daylight
25 Jul - 21:49:52 10° WSW 21:53:06 64° NNW 21:56:20 10° NE visible
25 Jul - 23:27:25 10° WNW 23:30:01 21° N 23:32:37 10° NE visible
26 Jul - 01:04:41 10° NW 01:07:16 21° N 01:09:52 10° ENE visible
26 Jul - 02:40:58 10° NW 02:44:13 62° NNE 02:47:27 10° ESE visible
26 Jul - 04:18:07 10° W 04:20:23 18° SW 04:22:40 10° S night (unlit)
26 Jul - 20:57:32 10° SW 21:00:46 72° SE 21:04:00 10° ENE visible
26 Jul - 22:34:40 10° WNW 22:37:29 26° NNW 22:40:18 10° NE visible
27 Jul - 00:12:15 10° NW 00:14:43 19° N 00:17:10 10° NE visible
27 Jul - 01:48:42 10° NW 01:51:48 39° NNE 01:54:54 10° E visible
27 Jul - 03:25:17 10° WNW 03:28:14 32° SW 03:31:10 10° SSE night (unlit)
27 Jul - 20:05:28 10° SSW 20:08:30 38° SE 20:11:33 10° ENE daylight
27 Jul - 21:41:58 10° W 21:45:00 35° NNW 21:48:02 10° NE visible
27 Jul - 23:19:41 10° NW 23:22:07 19° N 23:24:33 10° NE visible
28 Jul - 00:56:27 10° NW 00:59:19 28° NNE 01:02:12 10° E visible
28 Jul - 02:32:46 10° WNW 02:35:59 60° SW 02:39:11 10° SE night (unlit)
28 Jul - 19:13:47 10° S 19:16:18 21° SE 19:18:49 10° E daylight
28 Jul - 20:49:21 10° WSW 20:52:32 54° NNW 20:55:45 10° NE daylight
28 Jul - 22:26:59 10° WNW 22:29:31 20° N 22:32:04 10° NE visible
29 Jul - 00:04:07 10° NW 00:06:47 22° NNE 00:09:26 10° ENE visible
29 Jul - 01:40:23 10° NW 01:43:39 75° NNE 01:46:54 10° ESE visible
29 Jul - 03:17:52 10° W 03:19:44 14° SW 03:21:36 10° SSW night (unlit)
29 Jul - 18:23:02 10° SSE 18:24:10 11° SE 18:25:17 10° ESE daylight
29 Jul - 19:56:54 10° SW 20:00:09 88° SE 20:03:25 10° ENE daylight
29 Jul - 21:34:13 10° WNW 21:36:56 24° NNW 21:39:41 10° NE visible
29 Jul - 23:11:42 10° NW 23:14:11 20° N 23:16:40 10° NE visible
30 Jul - 00:48:04 10° NW 00:51:14 45° NNE 00:54:22 10° E visible
30 Jul - 02:24:47 10° WNW 02:27:34 26° SW 02:30:20 10° SSE night (unlit)
30 Jul - 19:04:41 10° SW 19:07:49 47° SE 19:10:59 10° ENE daylight
30 Jul - 20:41:26 10° W 20:44:24 31° NNW 20:47:21 10° NE daylight
30 Jul - 22:19:08 10° NW 22:21:33 19° N 22:23:59 10° NE visible
30 Jul - 23:55:46 10° NW 23:58:44 31° NNE 00:01:41 10° E visible
31 Jul - 01:32:09 10° WNW 01:35:18 48° SW 01:38:27 10° SE visible
31 Jul - 18:12:48 10° SSW 18:15:34 25° SE 18:18:19 10° E daylight
31 Jul - 19:48:44 10° W 19:51:53 46° NNW 19:55:03 10° NE daylight
31 Jul - 21:26:26 10° NW 21:28:55 20° N 21:31:25 10° NE visible
31 Jul - 23:03:26 10° NW 23:06:10 24° NNE 23:08:54 10° ENE visible
01 Aug - 00:39:41 10° WNW 00:42:57 89° W 00:46:12 10° ESE visible
01 Aug - 02:17:45 10° WSW 02:18:57 12° SW 02:20:10 10° SSW night (unlit)
01 Aug - 17:21:33 10° SSE 17:23:21 14° SE 17:25:10 10° E daylight
01 Aug - 18:56:10 10° WSW 18:59:26 77° NNW 19:02:42 10° NE daylight
01 Aug - 20:33:38 10° WNW 20:36:17 23° NNW 20:38:57 10° NE daylight
01 Aug - 22:11:00 10° NW 22:13:32 20° N 22:16:04 10° ENE visible
01 Aug - 23:47:19 10° NW 23:50:31 53° NNE 23:53:42 10° ESE visible
02 Aug - 01:24:13 10° W 01:26:46 21° SW 01:29:19 10° S night (unlit)
02 Aug - 18:03:50 10° SW 18:07:02 59° SE 18:10:15 10° ENE daylight
02 Aug - 19:40:48 10° W 19:43:41 28° NNW 19:46:34 10° NE daylight
02 Aug - 21:18:27 10° NW 21:20:53 19° N 21:23:18 10° NE visible
02 Aug - 22:54:58 10° NW 22:58:00 34° NNE 23:01:02 10° E visible
